Regional Weather Roundup
Issued by NWS

Home | Current Version | Previous Version | Graphics & Text | Print | Product List | Glossary On
Versions: 1 2 3 4 5 6 7 8 9 10 11 12 13 14 15 16 17 18 19 20 21 22 23 24 25 26 27 28 29 30 31 32 33 34 35 36 37 38 39 40 41 42 43 44 45 46 47 48 49 50
000
ASUS45 KSLC 290710
RWRUT

UTAH REGIONAL WEATHER ROUNDUP
NATIONAL WEATHER SERVICE SALT LAKE CITY UT
100 AM MDT WED JUL 29 2015

UTZ001>011-023>025-290800-

NORTHERN UTAH

CITY           SKY/WX    TMP DP  RH WIND       PRES   REMARKS
BRIGHAM CITY   CLEAR     60  36  40 W3        30.26S
HILL AFB       CLEAR     60  28  28 E15G25    30.27R
LOGAN          CLEAR     50  39  66 CALM      30.29R
OGDEN          CLEAR     60  29  30 S8        30.25R
PROVO AIRPORT  CLEAR     57  37  47 CALM      30.27R
SALT LAKE CITY CLEAR     60  31  33 S7        30.24S
VERNAL         CLEAR     62  19  19 CALM      30.25R
WENDOVER       CLEAR     61  25  25 W3        30.26S
HEBER CITY     CLEAR     45  32  61 E6        30.33R
WEST JORDAN    CLEAR     55  30  38 SW3       30.28R

$$

UTZ012>022-026-027-290800-

SOUTHERN/CENTRAL UTAH

CITY           SKY/WX    TMP DP  RH WIND       PRES   REMARKS
BLANDING       MOCLDY    65  29  25 N6        30.27S
BRYCE CANYON   CLEAR     57  27  31 NE9       30.39S
CEDAR CITY     CLEAR     59  28  30 NE5       30.25R
DELTA          CLEAR     63  23  21 N10       30.24S
HANKSVILLE     CLEAR     70  27  19 CALM      30.16S
MILFORD        CLEAR     65  24  21 N16       30.22S
MOAB/CYNLANDS  CLEAR     68  26  20 CALM      30.13R
PRICE          PTCLDY    60  23  24 NE6       30.28R
ST GEORGE      SUNNY     84  30  14 N3        30.03R
KANAB          CLEAR     72  32  23 N8        30.22R

$$

REGIONAL REPORTS     COLORADO/ARIZONA

CITY           SKY/WX    TMP DP  RH WIND       PRES   REMARKS
CRAIG, CO      CLEAR     50  29  44 VRB3      30.32R
GRAND JUNCTION PTCLDY    70  30  22 N3        30.15S
RIFLE          CLEAR     60  34  37 SE9       30.24R
MONTROSE       PTCLDY    63  37  38 SE8       30.25R
CORTEZ         CLEAR     60  37  42 N6        30.22S
PAGE, AZ       PTCLDY    83  24  11 W5        30.08R
GRAND CANYON   PTCLDY    52  24  33 NE5       30.29R
KINGMAN        CLEAR     72  37  28 CALM      30.05R
FLAGSTAFF      MOCLDY    62  37  39 SW6       30.34R

$$

REGIONAL REPORTS    NEVADA/IDAHO/WYOMING

CITY           SKY/WX    TMP DP  RH WIND       PRES   REMARKS
LAS VEGAS, NV  CLEAR     90  31  12 W3        29.89R
ELY            CLEAR     58  21  24 VRB3      30.32R
ELKO           CLEAR     61  28  28 NE9       30.26R
POCATELLO, ID  CLEAR     49  37  63 CALM      30.30R
BURLEY         CLEAR     49  37  63 S3        30.27R
EVANSTON, WY   PTCLDY    52  28  39 N5        30.41S
ROCK SPRINGS   CLEAR     53  20  27 CALM      30.37R
KEMMERER       CLEAR     45  32  61 NW10      30.42R

$$



USA.gov is the U.S. government's official web portal to all federal, state and local government web resources and services.